owner,sensor,date,latitude,longitude,sea_surface_height_above_sea_level,qcFlag 
TCOON,ioos:station:TCOON:057:1,2016-12-01T00:18:00Z,28.4460,-96.3961,3.713,1111122 
TCOON,ioos:station:TCOON:057:1,2016-12-01T01:18:00Z,28.4460,-96.3961,3.737,1111122 
TCOON,ioos:station:TCOON:057:1,2016-12-01T02:18:00Z,28.4460,-96.3961,3.778,1111122 
TCOON,ioos:station:TCOON:057:1,2016-12-01T03:18:00Z,28.4460,-96.3961,3.796,1111122 
TCOON,ioos:station:TCOON:057:1,2016-12-01T04:18:00Z,28.4460,-96.3961,3.807,1111122 
TCOON,ioos:station:TCOON:057:1,2016-12-01T05:18:00Z,28.4460,-96.3961,3.805,1111122 
TCOON,ioos:station:TCOON:057:1,2016-12-01T06:18:00Z,28.4460,-96.3961,3.821,1111122 
TCOON,ioos:station:TCOON:057:1,2016-12-01T07:18:00Z,28.4460,-96.3961,3.822,1111122 
TCOON,ioos:station:TCOON:057:1,2016-12-01T08:18:00Z,28.4460,-96.3961,3.817,1111122 
TCOON,ioos:station:TCOON:057:1,2016-12-01T09:18:00Z,28.4460,-96.3961,3.796,1111122 
TCOON,ioos:station:TCOON:057:1,2016-12-01T10:18:00Z,28.4460,-96.3961,3.776,1111122 
TCOON,ioos:station:TCOON:057:1,2016-12-01T11:18:00Z,28.4460,-96.3961,3.759,1111122 
TCOON,ioos:station:TCOON:057:1,2016-12-01T12:18:00Z,28.4460,-96.3961,3.732,1111122 
TCOON,ioos:station:TCOON:057:1,2016-12-01T13:18:00Z,28.4460,-96.3961,3.7,1111122 
TCOON,ioos:station:TCOON:057:1,2016-12-01T14:18:00Z,28.4460,-96.3961,3.674,1111122 
TCOON,ioos:station:TCOON:057:1,2016-12-01T15:18:00Z,28.4460,-96.3961,3.657,1111122 
TCOON,ioos:station:TCOON:057:1,2016-12-01T16:18:00Z,28.4460,-96.3961,3.62,1111122 
TCOON,ioos:station:TCOON:057:1,2016-12-01T17:36:00Z,28.4460,-96.3961,3.579,1111122 
TCOON,ioos:station:TCOON:057:1,2016-12-01T18:18:00Z,28.4460,-96.3961,3.575,1111122 
TCOON,ioos:station:TCOON:057:1,2016-12-01T19:18:00Z,28.4460,-96.3961,3.588,1111122 
TCOON,ioos:station:TCOON:057:1,2016-12-01T20:18:00Z,28.4460,-96.3961,3.619,1111122 
TCOON,ioos:station:TCOON:057:1,2016-12-01T21:18:00Z,28.4460,-96.3961,3.658,1111122 
TCOON,ioos:station:TCOON:057:1,2016-12-01T22:18:00Z,28.4460,-96.3961,3.716,1111122 
TCOON,ioos:station:TCOON:057:1,2016-12-01T23:18:00Z,28.4460,-96.3961,3.742,1111122 
TCOON,ioos:station:TCOON:057:1,2016-12-02T00:18:00Z,28.4460,-96.3961,3.783,1111122 
TCOON,ioos:station:TCOON:057:1,2016-12-02T01:18:00Z,28.4460,-96.3961,3.815,1111122 
TCOON,ioos:station:TCOON:057:1,2016-12-02T02:18:00Z,28.4460,-96.3961,3.849,1111122 
TCOON,ioos:station:TCOON:057:1,2016-12-02T03:18:00Z,28.4460,-96.3961,3.867,1111122 
TCOON,ioos:station:TCOON:057:1,2016-12-02T04:18:00Z,28.4460,-96.3961,3.885,1111122 
TCOON,ioos:station:TCOON:057:1,2016-12-02T05:18:00Z,28.4460,-96.3961,3.907,1111122 
TCOON,ioos:station:TCOON:057:1,2016-12-02T06:18:00Z,28.4460,-96.3961,3.923,1111122 
TCOON,ioos:station:TCOON:057:1,2016-12-02T07:18:00Z,28.4460,-96.3961,3.934,1111122 
TCOON,ioos:station:TCOON:057:1,2016-12-02T08:18:00Z,28.4460,-96.3961,3.947,1111122 
TCOON,ioos:station:TCOON:057:1,2016-12-02T09:18:00Z,28.4460,-96.3961,3.947,1111122 
TCOON,ioos:station:TCOON:057:1,2016-12-02T10:18:00Z,28.4460,-96.3961,3.927,1111122 
TCOON,ioos:station:TCOON:057:1,2016-12-02T11:18:00Z,28.4460,-96.3961,3.906,1111122 
TCOON,ioos:station:TCOON:057:1,2016-12-02T12:18:00Z,28.4460,-96.3961,3.881,1111122 
TCOON,ioos:station:TCOON:057:1,2016-12-02T13:18:00Z,28.4460,-96.3961,3.858,1111122 
TCOON,ioos:station:TCOON:057:1,2016-12-02T14:18:00Z,28.4460,-96.3961,3.828,1111122 
TCOON,ioos:station:TCOON:057:1,2016-12-02T15:18:00Z,28.4460,-96.3961,3.801,1111122 
TCOON,ioos:station:TCOON:057:1,2016-12-02T16:18:00Z,28.4460,-96.3961,3.784,1111122 
TCOON,ioos:station:TCOON:057:1,2016-12-02T17:18:00Z,28.4460,-96.3961,3.765,1111122 
TCOON,ioos:station:TCOON:057:1,2016-12-02T18:18:00Z,28.4460,-96.3961,3.744,1111122 
TCOON,ioos:station:TCOON:057:1,2016-12-02T19:18:00Z,28.4460,-96.3961,3.768,1111122 
TCOON,ioos:station:TCOON:057:1,2016-12-02T20:18:00Z,28.4460,-96.3961,3.78,1111122 
TCOON,ioos:station:TCOON:057:1,2016-12-02T21:18:00Z,28.4460,-96.3961,3.825,1111122 
TCOON,ioos:station:TCOON:057:1,2016-12-02T22:18:00Z,28.4460,-96.3961,3.877,1111122 
TCOON,ioos:station:TCOON:057:1,2016-12-02T23:18:00Z,28.4460,-96.3961,3.93,1111122 
TCOON,ioos:station:TCOON:057:1,2016-12-03T00:18:00Z,28.4460,-96.3961,3.985,1111122 
TCOON,ioos:station:TCOON:057:1,2016-12-03T01:18:00Z,28.4460,-96.3961,4.039,1111122 
TCOON,ioos:station:TCOON:057:1,2016-12-03T02:18:00Z,28.4460,-96.3961,4.056,1111122 
TCOON,ioos:station:TCOON:057:1,2016-12-03T03:18:00Z,28.4460,-96.3961,4.054,1111122 
TCOON,ioos:station:TCOON:057:1,2016-12-03T04:18:00Z,28.4460,-96.3961,4.083,1111122 
TCOON,ioos:station:TCOON:057:1,2016-12-03T05:18:00Z,28.4460,-96.3961,4.074,1111122 
TCOON,ioos:station:TCOON:057:1,2016-12-03T06:18:00Z,28.4460,-96.3961,4.08,1111122 
TCOON,ioos:station:TCOON:057:1,2016-12-03T07:18:00Z,28.4460,-96.3961,4.092,1111122 
TCOON,ioos:station:TCOON:057:1,2016-12-03T08:18:00Z,28.4460,-96.3961,4.104,1111122 
TCOON,ioos:station:TCOON:057:1,2016-12-03T09:18:00Z,28.4460,-96.3961,4.144,1111122 
TCOON,ioos:station:TCOON:057:1,2016-12-03T10:18:00Z,28.4460,-96.3961,4.129,1111122 
TCOON,ioos:station:TCOON:057:1,2016-12-03T11:18:00Z,28.4460,-96.3961,4.09,1111122 
TCOON,ioos:station:TCOON:057:1,2016-12-03T12:18:00Z,28.4460,-96.3961,4.072,1111122 
TCOON,ioos:station:TCOON:057:1,2016-12-03T13:18:00Z,28.4460,-96.3961,4.055,1111122 
TCOON,ioos:station:TCOON:057:1,2016-12-03T14:18:00Z,28.4460,-96.3961,4.039,1111122 
TCOON,ioos:station:TCOON:057:1,2016-12-03T15:18:00Z,28.4460,-96.3961,4.012,1111122 
TCOON,ioos:station:TCOON:057:1,2016-12-03T16:18:00Z,28.4460,-96.3961,3.994,1111122 
TCOON,ioos:station:TCOON:057:1,2016-12-03T17:18:00Z,28.4460,-96.3961,3.955,1111122 
TCOON,ioos:station:TCOON:057:1,2016-12-03T18:18:00Z,28.4460,-96.3961,3.924,1111122 
TCOON,ioos:station:TCOON:057:1,2016-12-03T19:18:00Z,28.4460,-96.3961,3.911,1111122 
TCOON,ioos:station:TCOON:057:1,2016-12-03T20:18:00Z,28.4460,-96.3961,3.898,1111122 
TCOON,ioos:station:TCOON:057:1,2016-12-03T21:18:00Z,28.4460,-96.3961,3.89,1111122 
TCOON,ioos:station:TCOON:057:1,2016-12-03T22:18:00Z,28.4460,-96.3961,3.913,1111122 
TCOON,ioos:station:TCOON:057:1,2016-12-03T23:18:00Z,28.4460,-96.3961,3.951,1111122 
TCOON,ioos:station:TCOON:057:1,2016-12-04T00:18:00Z,28.4460,-96.3961,3.976,1111122 
TCOON,ioos:station:TCOON:057:1,2016-12-04T01:18:00Z,28.4460,-96.3961,3.992,1111122 
TCOON,ioos:station:TCOON:057:1,2016-12-04T02:18:00Z,28.4460,-96.3961,3.993,1111122 
TCOON,ioos:station:TCOON:057:1,2016-12-04T03:18:00Z,28.4460,-96.3961,3.987,1111122 
TCOON,ioos:station:TCOON:057:1,2016-12-04T04:18:00Z,28.4460,-96.3961,3.996,1111122 
TCOON,ioos:station:TCOON:057:1,2016-12-04T05:18:00Z,28.4460,-96.3961,4.033,1111122 
TCOON,ioos:station:TCOON:057:1,2016-12-04T06:18:00Z,28.4460,-96.3961,4.102,1111122 
TCOON,ioos:station:TCOON:057:1,2016-12-04T07:18:00Z,28.4460,-96.3961,4.096,1111122 
TCOON,ioos:station:TCOON:057:1,2016-12-04T08:18:00Z,28.4460,-96.3961,4.091,1111122 
TCOON,ioos:station:TCOON:057:1,2016-12-04T09:18:00Z,28.4460,-96.3961,4.052,1111122 
TCOON,ioos:station:TCOON:057:1,2016-12-04T10:18:00Z,28.4460,-96.3961,4.058,1111122 
TCOON,ioos:station:TCOON:057:1,2016-12-04T11:18:00Z,28.4460,-96.3961,4.048,1111122 
TCOON,ioos:station:TCOON:057:1,2016-12-04T12:18:00Z,28.4460,-96.3961,4.022,1111122 
TCOON,ioos:station:TCOON:057:1,2016-12-04T13:18:00Z,28.4460,-96.3961,3.98,1111122 
TCOON,ioos:station:TCOON:057:1,2016-12-04T14:18:00Z,28.4460,-96.3961,3.945,1111122 
TCOON,ioos:station:TCOON:057:1,2016-12-04T15:18:00Z,28.4460,-96.3961,3.935,1111122 
TCOON,ioos:station:TCOON:057:1,2016-12-04T16:18:00Z,28.4460,-96.3961,3.922,1111122 
TCOON,ioos:station:TCOON:057:1,2016-12-04T17:18:00Z,28.4460,-96.3961,3.858,1111122 
TCOON,ioos:station:TCOON:057:1,2016-12-04T18:18:00Z,28.4460,-96.3961,3.853,1111122 
TCOON,ioos:station:TCOON:057:1,2016-12-04T19:18:00Z,28.4460,-96.3961,3.822,1111122 
TCOON,ioos:station:TCOON:057:1,2016-12-04T20:18:00Z,28.4460,-96.3961,3.8,1111122 
TCOON,ioos:station:TCOON:057:1,2016-12-04T21:18:00Z,28.4460,-96.3961,3.784,1111122 
TCOON,ioos:station:TCOON:057:1,2016-12-04T22:18:00Z,28.4460,-96.3961,3.784,1111122 
TCOON,ioos:station:TCOON:057:1,2016-12-04T23:18:00Z,28.4460,-96.3961,3.793,1111122 
TCOON,ioos:station:TCOON:057:1,2016-12-05T00:18:00Z,28.4460,-96.3961,3.851,1111122 
TCOON,ioos:station:TCOON:057:1,2016-12-05T01:18:00Z,28.4460,-96.3961,3.862,1111122 
TCOON,ioos:station:TCOON:057:1,2016-12-05T02:18:00Z,28.4460,-96.3961,3.907,1111122 
TCOON,ioos:station:TCOON:057:1,2016-12-05T03:18:00Z,28.4460,-96.3961,3.928,1111122 
TCOON,ioos:station:TCOON:057:1,2016-12-05T04:18:00Z,28.4460,-96.3961,3.955,1111122 
TCOON,ioos:station:TCOON:057:1,2016-12-05T05:18:00Z,28.4460,-96.3961,3.972,1111122 
TCOON,ioos:station:TCOON:057:1,2016-12-05T06:18:00Z,28.4460,-96.3961,3.962,1111122 
TCOON,ioos:station:TCOON:057:1,2016-12-05T07:18:00Z,28.4460,-96.3961,3.971,1111122 
TCOON,ioos:station:TCOON:057:1,2016-12-05T08:18:00Z,28.4460,-96.3961,3.964,1111122 
TCOON,ioos:station:TCOON:057:1,2016-12-05T09:18:00Z,28.4460,-96.3961,3.98,1111122 
TCOON,ioos:station:TCOON:057:1,2016-12-05T10:18:00Z,28.4460,-96.3961,3.958,1111122 
TCOON,ioos:station:TCOON:057:1,2016-12-05T11:18:00Z,28.4460,-96.3961,3.908,1111122 
TCOON,ioos:station:TCOON:057:1,2016-12-05T12:18:00Z,28.4460,-96.3961,3.894,1111122 
TCOON,ioos:station:TCOON:057:1,2016-12-05T13:18:00Z,28.4460,-96.3961,3.882,1111122 
TCOON,ioos:station:TCOON:057:1,2016-12-05T14:18:00Z,28.4460,-96.3961,3.87,1111122 
TCOON,ioos:station:TCOON:057:1,2016-12-05T15:18:00Z,28.4460,-96.3961,3.84,1111122 
TCOON,ioos:station:TCOON:057:1,2016-12-05T21:42:00Z,28.4460,-96.3961,3.77,1111122 
TCOON,ioos:station:TCOON:057:1,2016-12-05T22:18:00Z,28.4460,-96.3961,3.756,1111122 
TCOON,ioos:station:TCOON:057:1,2016-12-05T23:18:00Z,28.4460,-96.3961,3.791,1111122 
TCOON,ioos:station:TCOON:057:1,2016-12-06T00:18:00Z,28.4460,-96.3961,3.804,1111122 
TCOON,ioos:station:TCOON:057:1,2016-12-06T01:18:00Z,28.4460,-96.3961,3.824,1111122 
TCOON,ioos:station:TCOON:057:1,2016-12-06T02:18:00Z,28.4460,-96.3961,3.84,1111122 
TCOON,ioos:station:TCOON:057:1,2016-12-06T03:18:00Z,28.4460,-96.3961,3.862,1111122 
TCOON,ioos:station:TCOON:057:1,2016-12-06T04:18:00Z,28.4460,-96.3961,3.894,1111122 
TCOON,ioos:station:TCOON:057:1,2016-12-06T05:18:00Z,28.4460,-96.3961,3.908,1111122 
TCOON,ioos:station:TCOON:057:1,2016-12-06T06:18:00Z,28.4460,-96.3961,3.92,1111122 
TCOON,ioos:station:TCOON:057:1,2016-12-06T07:18:00Z,28.4460,-96.3961,3.89,1111122 
TCOON,ioos:station:TCOON:057:1,2016-12-06T08:18:00Z,28.4460,-96.3961,3.889,1111122 
TCOON,ioos:station:TCOON:057:1,2016-12-06T09:18:00Z,28.4460,-96.3961,3.879,1111122 
TCOON,ioos:station:TCOON:057:1,2016-12-06T10:18:00Z,28.4460,-96.3961,3.864,1111122 
TCOON,ioos:station:TCOON:057:1,2016-12-06T11:18:00Z,28.4460,-96.3961,3.837,1111122 
TCOON,ioos:station:TCOON:057:1,2016-12-06T12:18:00Z,28.4460,-96.3961,3.81,1111122 
TCOON,ioos:station:TCOON:057:1,2016-12-06T13:18:00Z,28.4460,-96.3961,3.786,1111122 
TCOON,ioos:station:TCOON:057:1,2016-12-06T14:18:00Z,28.4460,-96.3961,3.754,1111122 
TCOON,ioos:station:TCOON:057:1,2016-12-06T15:18:00Z,28.4460,-96.3961,3.714,1111122 
TCOON,ioos:station:TCOON:057:1,2016-12-06T16:18:00Z,28.4460,-96.3961,3.695,1111122 
TCOON,ioos:station:TCOON:057:1,2016-12-06T17:18:00Z,28.4460,-96.3961,3.636,1111122 
TCOON,ioos:station:TCOON:057:1,2016-12-06T18:18:00Z,28.4460,-96.3961,3.617,1111122 
TCOON,ioos:station:TCOON:057:1,2016-12-06T19:18:00Z,28.4460,-96.3961,3.603,1111122 
TCOON,ioos:station:TCOON:057:1,2016-12-06T20:18:00Z,28.4460,-96.3961,3.584,1111122 
TCOON,ioos:station:TCOON:057:1,2016-12-06T21:18:00Z,28.4460,-96.3961,3.573,1111122 
TCOON,ioos:station:TCOON:057:1,2016-12-06T22:18:00Z,28.4460,-96.3961,3.555,1111122 
TCOON,ioos:station:TCOON:057:1,2016-12-06T23:18:00Z,28.4460,-96.3961,3.554,1111122 
TCOON,ioos:station:TCOON:057:1,2016-12-07T00:18:00Z,28.4460,-96.3961,3.547,1111122 
TCOON,ioos:station:TCOON:057:1,2016-12-07T01:18:00Z,28.4460,-96.3961,3.546,1111122 
TCOON,ioos:station:TCOON:057:1,2016-12-07T02:18:00Z,28.4460,-96.3961,3.628,1111122 
TCOON,ioos:station:TCOON:057:1,2016-12-07T03:18:00Z,28.4460,-96.3961,3.592,1111122 
TCOON,ioos:station:TCOON:057:1,2016-12-07T04:18:00Z,28.4460,-96.3961,3.591,1111122 
TCOON,ioos:station:TCOON:057:1,2016-12-07T05:18:00Z,28.4460,-96.3961,3.603,1111122 
TCOON,ioos:station:TCOON:057:1,2016-12-07T06:18:00Z,28.4460,-96.3961,3.599,1111122 
TCOON,ioos:station:TCOON:057:1,2016-12-07T07:18:00Z,28.4460,-96.3961,3.587,1111122 
TCOON,ioos:station:TCOON:057:1,2016-12-07T08:18:00Z,28.4460,-96.3961,3.596,1111122 
TCOON,ioos:station:TCOON:057:1,2016-12-07T09:18:00Z,28.4460,-96.3961,3.6,1111122 
TCOON,ioos:station:TCOON:057:1,2016-12-07T10:18:00Z,28.4460,-96.3961,3.621,1111122 
TCOON,ioos:station:TCOON:057:1,2016-12-07T11:18:00Z,28.4460,-96.3961,3.609,1111122 
TCOON,ioos:station:TCOON:057:1,2016-12-07T12:18:00Z,28.4460,-96.3961,3.639,1111122 
TCOON,ioos:station:TCOON:057:1,2016-12-07T13:18:00Z,28.4460,-96.3961,3.659,1111122 
TCOON,ioos:station:TCOON:057:1,2016-12-07T14:18:00Z,28.4460,-96.3961,3.652,1111122 
TCOON,ioos:station:TCOON:057:1,2016-12-07T15:18:00Z,28.4460,-96.3961,3.659,1111122 
TCOON,ioos:station:TCOON:057:1,2016-12-07T16:18:00Z,28.4460,-96.3961,3.66,1111122 
TCOON,ioos:station:TCOON:057:1,2016-12-07T17:18:00Z,28.4460,-96.3961,3.665,1111122 
TCOON,ioos:station:TCOON:057:1,2016-12-07T18:18:00Z,28.4460,-96.3961,3.661,1111122 
TCOON,ioos:station:TCOON:057:1,2016-12-07T19:18:00Z,28.4460,-96.3961,3.64,1111122 
TCOON,ioos:station:TCOON:057:1,2016-12-07T20:18:00Z,28.4460,-96.3961,3.647,1111122 
TCOON,ioos:station:TCOON:057:1,2016-12-07T21:18:00Z,28.4460,-96.3961,3.655,1111122 
TCOON,ioos:station:TCOON:057:1,2016-12-07T22:18:00Z,28.4460,-96.3961,3.67,1111122 
TCOON,ioos:station:TCOON:057:1,2016-12-07T23:18:00Z,28.4460,-96.3961,3.681,1111122 
TCOON,ioos:station:TCOON:057:1,2016-12-08T00:18:00Z,28.4460,-96.3961,3.694,1111122 
TCOON,ioos:station:TCOON:057:1,2016-12-08T01:18:00Z,28.4460,-96.3961,3.69,1111122 
TCOON,ioos:station:TCOON:057:1,2016-12-08T02:18:00Z,28.4460,-96.3961,3.744,1111122 
TCOON,ioos:station:TCOON:057:1,2016-12-08T03:54:00Z,28.4460,-96.3961,3.793,1111122 
TCOON,ioos:station:TCOON:057:1,2016-12-08T04:30:00Z,28.4460,-96.3961,3.805,1111122 
TCOON,ioos:station:TCOON:057:1,2016-12-08T05:18:00Z,28.4460,-96.3961,3.832,1111122 
TCOON,ioos:station:TCOON:057:1,2016-12-08T06:24:00Z,28.4460,-96.3961,3.876,1111122 
TCOON,ioos:station:TCOON:057:1,2016-12-08T07:18:00Z,28.4460,-96.3961,3.869,1111122 
TCOON,ioos:station:TCOON:057:1,2016-12-08T08:18:00Z,28.4460,-96.3961,3.88,1111122 
TCOON,ioos:station:TCOON:057:1,2016-12-08T09:18:00Z,28.4460,-96.3961,3.838,1111122 
TCOON,ioos:station:TCOON:057:1,2016-12-08T10:18:00Z,28.4460,-96.3961,3.844,1111122 
TCOON,ioos:station:TCOON:057:1,2016-12-08T11:18:00Z,28.4460,-96.3961,3.798,1111122 
TCOON,ioos:station:TCOON:057:1,2016-12-08T12:18:00Z,28.4460,-96.3961,3.786,1111122 
TCOON,ioos:station:TCOON:057:1,2016-12-08T13:18:00Z,28.4460,-96.3961,3.779,1111122 
TCOON,ioos:station:TCOON:057:1,2016-12-08T14:18:00Z,28.4460,-96.3961,3.767,1111122 
TCOON,ioos:station:TCOON:057:1,2016-12-08T15:18:00Z,28.4460,-96.3961,3.771,1111122 
TCOON,ioos:station:TCOON:057:1,2016-12-08T16:18:00Z,28.4460,-96.3961,3.779,1111122 
TCOON,ioos:station:TCOON:057:1,2016-12-08T17:18:00Z,28.4460,-96.3961,3.774,1111122 
TCOON,ioos:station:TCOON:057:1,2016-12-08T18:18:00Z,28.4460,-96.3961,3.765,1111122 
TCOON,ioos:station:TCOON:057:1,2016-12-08T19:18:00Z,28.4460,-96.3961,3.757,1111122 
TCOON,ioos:station:TCOON:057:1,2016-12-08T20:18:00Z,28.4460,-96.3961,3.711,1111122 
TCOON,ioos:station:TCOON:057:1,2016-12-08T21:18:00Z,28.4460,-96.3961,3.684,1111122 
TCOON,ioos:station:TCOON:057:1,2016-12-08T22:18:00Z,28.4460,-96.3961,3.669,1111122 
TCOON,ioos:station:TCOON:057:1,2016-12-08T23:18:00Z,28.4460,-96.3961,3.671,1111122 
TCOON,ioos:station:TCOON:057:1,2016-12-09T00:18:00Z,28.4460,-96.3961,3.671,1111122 
TCOON,ioos:station:TCOON:057:1,2016-12-09T01:18:00Z,28.4460,-96.3961,3.715,1111122 
TCOON,ioos:station:TCOON:057:1,2016-12-09T02:18:00Z,28.4460,-96.3961,3.736,1111122 
TCOON,ioos:station:TCOON:057:1,2016-12-09T03:18:00Z,28.4460,-96.3961,3.763,1111122 
TCOON,ioos:station:TCOON:057:1,2016-12-09T04:24:00Z,28.4460,-96.3961,3.751,1111122 
TCOON,ioos:station:TCOON:057:1,2016-12-09T05:18:00Z,28.4460,-96.3961,3.765,1111122 
TCOON,ioos:station:TCOON:057:1,2016-12-09T06:18:00Z,28.4460,-96.3961,3.772,1111122 
TCOON,ioos:station:TCOON:057:1,2016-12-09T07:18:00Z,28.4460,-96.3961,3.764,1111122 
TCOON,ioos:station:TCOON:057:1,2016-12-09T09:18:00Z,28.4460,-96.3961,3.747,1111122 
TCOON,ioos:station:TCOON:057:1,2016-12-09T10:18:00Z,28.4460,-96.3961,3.714,1111122 
TCOON,ioos:station:TCOON:057:1,2016-12-09T11:18:00Z,28.4460,-96.3961,3.716,1111122 
TCOON,ioos:station:TCOON:057:1,2016-12-09T12:18:00Z,28.4460,-96.3961,3.687,1111122 
TCOON,ioos:station:TCOON:057:1,2016-12-09T13:18:00Z,28.4460,-96.3961,3.681,1111122 
TCOON,ioos:station:TCOON:057:1,2016-12-09T14:18:00Z,28.4460,-96.3961,3.699,1111122 
TCOON,ioos:station:TCOON:057:1,2016-12-09T15:18:00Z,28.4460,-96.3961,3.685,1111122 
TCOON,ioos:station:TCOON:057:1,2016-12-09T16:24:00Z,28.4460,-96.3961,3.721,1111122 
TCOON,ioos:station:TCOON:057:1,2016-12-09T17:18:00Z,28.4460,-96.3961,3.724,1111122 
TCOON,ioos:station:TCOON:057:1,2016-12-09T18:18:00Z,28.4460,-96.3961,3.734,1111122 
TCOON,ioos:station:TCOON:057:1,2016-12-09T19:18:00Z,28.4460,-96.3961,3.75,1111122 
TCOON,ioos:station:TCOON:057:1,2016-12-09T20:18:00Z,28.4460,-96.3961,3.771,1111122 
TCOON,ioos:station:TCOON:057:1,2016-12-09T21:18:00Z,28.4460,-96.3961,3.786,1111122 
TCOON,ioos:station:TCOON:057:1,2016-12-09T22:18:00Z,28.4460,-96.3961,3.812,1111122 
TCOON,ioos:station:TCOON:057:1,2016-12-09T23:18:00Z,28.4460,-96.3961,3.831,1111122 
TCOON,ioos:station:TCOON:057:1,2016-12-10T00:18:00Z,28.4460,-96.3961,3.845,1111122 
TCOON,ioos:station:TCOON:057:1,2016-12-10T01:18:00Z,28.4460,-96.3961,3.855,1111122 
TCOON,ioos:station:TCOON:057:1,2016-12-10T02:18:00Z,28.4460,-96.3961,3.867,1111122 
TCOON,ioos:station:TCOON:057:1,2016-12-10T03:18:00Z,28.4460,-96.3961,3.893,1111122 
TCOON,ioos:station:TCOON:057:1,2016-12-10T04:24:00Z,28.4460,-96.3961,3.905,1111122 
TCOON,ioos:station:TCOON:057:1,2016-12-10T05:18:00Z,28.4460,-96.3961,3.911,1111122 
TCOON,ioos:station:TCOON:057:1,2016-12-10T06:18:00Z,28.4460,-96.3961,3.903,1111122 
TCOON,ioos:station:TCOON:057:1,2016-12-10T07:18:00Z,28.4460,-96.3961,3.897,1111122 
TCOON,ioos:station:TCOON:057:1,2016-12-10T08:18:00Z,28.4460,-96.3961,3.891,1111122 
TCOON,ioos:station:TCOON:057:1,2016-12-10T09:18:00Z,28.4460,-96.3961,3.884,1111122 
TCOON,ioos:station:TCOON:057:1,2016-12-10T10:18:00Z,28.4460,-96.3961,3.865,1111122 
TCOON,ioos:station:TCOON:057:1,2016-12-10T11:18:00Z,28.4460,-96.3961,3.828,1111122 
TCOON,ioos:station:TCOON:057:1,2016-12-10T12:18:00Z,28.4460,-96.3961,3.807,1111122 
TCOON,ioos:station:TCOON:057:1,2016-12-10T13:18:00Z,28.4460,-96.3961,3.779,1111122 
TCOON,ioos:station:TCOON:057:1,2016-12-10T14:18:00Z,28.4460,-96.3961,3.752,1111122 
TCOON,ioos:station:TCOON:057:1,2016-12-10T15:18:00Z,28.4460,-96.3961,3.754,1111122 
TCOON,ioos:station:TCOON:057:1,2016-12-10T16:18:00Z,28.4460,-96.3961,3.765,1111122 
TCOON,ioos:station:TCOON:057:1,2016-12-10T17:18:00Z,28.4460,-96.3961,3.795,1111122 
TCOON,ioos:station:TCOON:057:1,2016-12-10T18:18:00Z,28.4460,-96.3961,3.825,1111122 
TCOON,ioos:station:TCOON:057:1,2016-12-10T19:18:00Z,28.4460,-96.3961,3.845,1111122 
TCOON,ioos:station:TCOON:057:1,2016-12-10T20:18:00Z,28.4460,-96.3961,3.847,1111122 
TCOON,ioos:station:TCOON:057:1,2016-12-10T21:18:00Z,28.4460,-96.3961,3.883,1111122 
TCOON,ioos:station:TCOON:057:1,2016-12-10T22:18:00Z,28.4460,-96.3961,3.907,1111122 
TCOON,ioos:station:TCOON:057:1,2016-12-10T23:18:00Z,28.4460,-96.3961,3.908,1111122 
TCOON,ioos:station:TCOON:057:1,2016-12-11T00:18:00Z,28.4460,-96.3961,3.92,1111122 
TCOON,ioos:station:TCOON:057:1,2016-12-11T01:18:00Z,28.4460,-96.3961,3.918,1111122 
TCOON,ioos:station:TCOON:057:1,2016-12-11T02:18:00Z,28.4460,-96.3961,3.94,1111122 
TCOON,ioos:station:TCOON:057:1,2016-12-11T03:18:00Z,28.4460,-96.3961,3.958,1111122 
TCOON,ioos:station:TCOON:057:1,2016-12-11T04:18:00Z,28.4460,-96.3961,3.967,1111122 
TCOON,ioos:station:TCOON:057:1,2016-12-11T05:18:00Z,28.4460,-96.3961,3.993,1111122 
TCOON,ioos:station:TCOON:057:1,2016-12-11T06:18:00Z,28.4460,-96.3961,3.997,1111122 
TCOON,ioos:station:TCOON:057:1,2016-12-11T07:18:00Z,28.4460,-96.3961,4.002,1111122 
TCOON,ioos:station:TCOON:057:1,2016-12-11T08:18:00Z,28.4460,-96.3961,3.979,1111122 
TCOON,ioos:station:TCOON:057:1,2016-12-11T09:18:00Z,28.4460,-96.3961,3.961,1111122 
TCOON,ioos:station:TCOON:057:1,2016-12-11T10:18:00Z,28.4460,-96.3961,3.939,1111122 
TCOON,ioos:station:TCOON:057:1,2016-12-11T11:18:00Z,28.4460,-96.3961,3.91,1111122 
TCOON,ioos:station:TCOON:057:1,2016-12-11T12:18:00Z,28.4460,-96.3961,3.883,1111122 
TCOON,ioos:station:TCOON:057:1,2016-12-11T13:18:00Z,28.4460,-96.3961,3.862,1111122 
TCOON,ioos:station:TCOON:057:1,2016-12-11T14:18:00Z,28.4460,-96.3961,3.855,1111122 
TCOON,ioos:station:TCOON:057:1,2016-12-11T15:18:00Z,28.4460,-96.3961,3.831,1111122 
TCOON,ioos:station:TCOON:057:1,2016-12-11T16:18:00Z,28.4460,-96.3961,3.822,1111122 
TCOON,ioos:station:TCOON:057:1,2016-12-11T17:18:00Z,28.4460,-96.3961,3.845,1111122 
TCOON,ioos:station:TCOON:057:1,2016-12-11T18:18:00Z,28.4460,-96.3961,3.874,1111122 
TCOON,ioos:station:TCOON:057:1,2016-12-11T19:18:00Z,28.4460,-96.3961,3.882,1111122 
TCOON,ioos:station:TCOON:057:1,2016-12-11T20:18:00Z,28.4460,-96.3961,3.9,1111122 
TCOON,ioos:station:TCOON:057:1,2016-12-11T21:18:00Z,28.4460,-96.3961,3.932,1111122 
TCOON,ioos:station:TCOON:057:1,2016-12-11T22:18:00Z,28.4460,-96.3961,3.958,1111122 
TCOON,ioos:station:TCOON:057:1,2016-12-11T23:18:00Z,28.4460,-96.3961,3.967,1111122 
TCOON,ioos:station:TCOON:057:1,2016-12-12T00:18:00Z,28.4460,-96.3961,3.969,1111122 
TCOON,ioos:station:TCOON:057:1,2016-12-12T01:18:00Z,28.4460,-96.3961,3.971,1111122 
TCOON,ioos:station:TCOON:057:1,2016-12-12T02:18:00Z,28.4460,-96.3961,3.962,1111122 
TCOON,ioos:station:TCOON:057:1,2016-12-12T03:18:00Z,28.4460,-96.3961,3.942,1111122 
TCOON,ioos:station:TCOON:057:1,2016-12-12T04:18:00Z,28.4460,-96.3961,3.937,1111122 
TCOON,ioos:station:TCOON:057:1,2016-12-12T05:18:00Z,28.4460,-96.3961,3.924,1111122 
TCOON,ioos:station:TCOON:057:1,2016-12-12T06:18:00Z,28.4460,-96.3961,3.903,1111122 
TCOON,ioos:station:TCOON:057:1,2016-12-12T07:18:00Z,28.4460,-96.3961,3.874,1111122 
TCOON,ioos:station:TCOON:057:1,2016-12-12T08:18:00Z,28.4460,-96.3961,3.846,1111122 
TCOON,ioos:station:TCOON:057:1,2016-12-12T09:18:00Z,28.4460,-96.3961,3.811,1111122 
TCOON,ioos:station:TCOON:057:1,2016-12-12T10:18:00Z,28.4460,-96.3961,3.775,1111122 
TCOON,ioos:station:TCOON:057:1,2016-12-12T11:18:00Z,28.4460,-96.3961,3.74,1111122 
TCOON,ioos:station:TCOON:057:1,2016-12-12T12:18:00Z,28.4460,-96.3961,3.697,1111122 
TCOON,ioos:station:TCOON:057:1,2016-12-12T13:18:00Z,28.4460,-96.3961,3.666,1111122 
TCOON,ioos:station:TCOON:057:1,2016-12-12T14:18:00Z,28.4460,-96.3961,3.632,1111122 
TCOON,ioos:station:TCOON:057:1,2016-12-12T15:24:00Z,28.4460,-96.3961,3.602,1111122 
TCOON,ioos:station:TCOON:057:1,2016-12-12T16:24:00Z,28.4460,-96.3961,3.587,1111122 
TCOON,ioos:station:TCOON:057:1,2016-12-12T17:24:00Z,28.4460,-96.3961,3.589,1111122 
TCOON,ioos:station:TCOON:057:1,2016-12-12T18:18:00Z,28.4460,-96.3961,3.609,1111122 
TCOON,ioos:station:TCOON:057:1,2016-12-12T19:18:00Z,28.4460,-96.3961,3.636,1111122 
TCOON,ioos:station:TCOON:057:1,2016-12-12T20:18:00Z,28.4460,-96.3961,3.655,1111122 
TCOON,ioos:station:TCOON:057:1,2016-12-12T21:18:00Z,28.4460,-96.3961,3.7,1111122 
TCOON,ioos:station:TCOON:057:1,2016-12-12T22:18:00Z,28.4460,-96.3961,3.734,1111122 
TCOON,ioos:station:TCOON:057:1,2016-12-12T23:18:00Z,28.4460,-96.3961,3.763,1111122 
TCOON,ioos:station:TCOON:057:1,2016-12-13T00:18:00Z,28.4460,-96.3961,3.793,1111122 
TCOON,ioos:station:TCOON:057:1,2016-12-13T01:18:00Z,28.4460,-96.3961,3.813,1111122 
TCOON,ioos:station:TCOON:057:1,2016-12-13T02:18:00Z,28.4460,-96.3961,3.817,1111122 